Time,TemperatureF,DewpointF,PressureIn,WindDirection,WindDirectionDegrees,WindSpeedMPH,WindSpeedGustMPH,Humidity,HourlyPrecipIn,Conditions,Clouds,dailyrainin,SoftwareType,DateUTC
2013-02-11 00:00:00,39.9,30.9,29.90,SSW,205,5.0,24.0,70,0.00,,,0.00,meteohub,2013-02-11 05:00:00,
2013-02-11 00:01:00,39.9,30.9,29.91,SSW,200,7.0,24.0,70,0.00,,,0.00,meteohub,2013-02-11 05:01:00,
2013-02-11 00:02:00,39.9,30.9,29.91,South,188,8.0,24.0,70,0.00,,,0.00,meteohub,2013-02-11 05:02:00,
2013-02-11 00:07:00,39.9,30.6,29.90,WSW,244,6.0,19.0,69,0.00,,,0.00,meteohub,2013-02-11 05:07:00,
2013-02-11 00:12:00,40.1,31.1,29.90,SSW,202,4.0,17.0,70,0.00,,,0.00,meteohub,2013-02-11 05:12:00,
2013-02-11 00:17:00,40.3,31.3,29.90,SW,233,7.0,17.0,70,0.00,,,0.00,meteohub,2013-02-11 05:17:00,
2013-02-11 00:22:00,40.3,31.3,29.89,SW,228,9.0,15.0,70,0.00,,,0.00,meteohub,2013-02-11 05:22:00,
2013-02-11 00:27:00,40.3,31.3,29.90,WSW,246,4.0,17.0,70,0.00,,,0.00,meteohub,2013-02-11 05:27:00,
2013-02-11 00:32:00,40.3,31.6,29.89,South,188,8.0,17.0,71,0.00,,,0.00,meteohub,2013-02-11 05:32:00,
2013-02-11 00:37:00,40.3,32.0,29.89,SSW,213,7.0,17.0,72,0.00,,,0.00,meteohub,2013-02-11 05:37:00,
2013-02-11 00:42:00,40.1,32.2,29.89,SW,223,9.0,16.0,73,0.00,,,0.00,meteohub,2013-02-11 05:42:00,
2013-02-11 00:48:00,40.1,32.2,29.89,WSW,239,7.0,16.0,73,0.00,,,0.00,meteohub,2013-02-11 05:48:00,
2013-02-11 00:53:00,39.9,32.0,29.90,SSW,196,5.0,16.0,73,0.00,,,0.00,meteohub,2013-02-11 05:53:00,
2013-02-11 00:58:00,39.9,32.4,29.89,WSW,258,7.0,15.0,74,0.00,,,0.00,meteohub,2013-02-11 05:58:00,
2013-02-11 01:03:00,39.9,32.4,29.89,WSW,247,6.0,15.0,74,0.00,,,0.00,meteohub,2013-02-11 06:03:00,
2013-02-11 01:08:00,39.7,32.5,29.88,SW,219,9.0,14.0,75,0.00,,,0.00,meteohub,2013-02-11 06:08:00,
2013-02-11 01:13:00,39.7,32.5,29.88,SSW,211,6.0,14.0,75,0.00,,,0.00,meteohub,2013-02-11 06:13:00,
2013-02-11 01:18:00,39.7,32.5,29.88,WSW,246,8.0,15.0,75,0.00,,,0.00,meteohub,2013-02-11 06:18:00,
2013-02-11 01:23:00,39.7,32.5,29.87,SSW,196,14.0,17.0,75,0.00,,,0.00,meteohub,2013-02-11 06:23:00,
2013-02-11 01:28:00,39.7,32.5,29.87,SW,214,8.0,17.0,75,0.00,,,0.00,meteohub,2013-02-11 06:28:00,
2013-02-11 01:34:00,39.6,32.4,29.87,SSW,211,7.0,17.0,75,0.00,,,0.00,meteohub,2013-02-11 06:34:00,
2013-02-11 01:39:00,39.6,32.4,29.88,SSW,193,6.0,15.0,75,0.00,,,0.00,meteohub,2013-02-11 06:39:00,
2013-02-11 01:44:00,39.6,32.4,29.88,South,188,7.0,15.0,75,0.00,,,0.00,meteohub,2013-02-11 06:44:00,
2013-02-11 01:49:00,39.6,32.5,29.87,SW,222,4.0,12.0,76,0.00,,,0.00,meteohub,2013-02-11 06:49:00,
2013-02-11 01:54:00,39.6,32.5,29.87,South,190,4.0,13.0,76,0.00,,,0.00,meteohub,2013-02-11 06:54:00,
2013-02-11 01:59:00,39.6,32.5,29.87,SSW,205,9.0,14.0,76,0.00,,,0.00,meteohub,2013-02-11 06:59:00,
2013-02-11 02:04:00,39.4,32.7,29.87,SW,235,6.0,14.0,77,0.00,,,0.00,meteohub,2013-02-11 07:04:00,
2013-02-11 02:09:00,39.4,32.7,29.87,SW,227,4.0,14.0,77,0.00,,,0.00,meteohub,2013-02-11 07:09:00,
2013-02-11 02:15:00,39.4,33.1,29.86,SW,216,7.0,11.0,78,0.00,,,0.00,meteohub,2013-02-11 07:15:00,
2013-02-11 02:20:00,39.0,33.1,29.86,SW,231,4.0,9.0,79,0.00,,,0.00,meteohub,2013-02-11 07:20:00,
2013-02-11 02:25:00,39.0,33.4,29.86,SW,217,2.0,13.0,80,0.00,,,0.00,meteohub,2013-02-11 07:25:00,
2013-02-11 02:30:00,39.0,33.6,29.86,SSW,205,2.0,13.0,81,0.00,,,0.00,meteohub,2013-02-11 07:30:00,
2013-02-11 02:35:00,38.8,33.8,29.86,SSW,197,5.0,10.0,82,0.00,,,0.00,meteohub,2013-02-11 07:35:00,
2013-02-11 02:40:00,38.8,34.2,29.86,SSW,209,7.0,10.0,83,0.00,,,0.00,meteohub,2013-02-11 07:40:00,
2013-02-11 02:45:00,38.7,34.2,29.86,SSW,209,6.0,10.0,84,0.00,,,0.00,meteohub,2013-02-11 07:45:00,
2013-02-11 02:50:00,38.5,34.3,29.86,SSW,207,5.0,10.0,85,0.00,,,0.00,meteohub,2013-02-11 07:50:00,
2013-02-11 02:55:00,38.1,34.5,29.85,SW,221,3.0,10.0,87,0.00,,,0.00,meteohub,2013-02-11 07:55:00,
2013-02-11 03:00:00,38.1,34.9,29.84,SW,232,5.0,9.0,88,0.00,,,0.00,meteohub,2013-02-11 08:00:00,
2013-02-11 03:05:00,37.9,35.1,29.84,WSW,243,3.0,9.0,89,0.00,,,0.00,meteohub,2013-02-11 08:05:00,
2013-02-11 03:11:00,37.8,35.1,29.84,SW,226,0.0,9.0,90,0.00,,,0.00,meteohub,2013-02-11 08:11:00,
2013-02-11 03:16:00,37.8,35.4,29.83,SW,216,4.0,9.0,91,0.00,,,0.00,meteohub,2013-02-11 08:16:00,
2013-02-11 03:21:00,37.8,35.6,29.84,SW,233,5.0,7.0,92,0.00,,,0.00,meteohub,2013-02-11 08:21:00,
2013-02-11 03:26:00,37.6,35.4,29.83,SW,230,1.0,7.0,92,0.00,,,0.00,meteohub,2013-02-11 08:26:00,
2013-02-11 03:31:00,37.6,35.8,29.83,SW,219,4.0,9.0,93,0.00,,,0.00,meteohub,2013-02-11 08:31:00,
2013-02-11 03:36:00,37.4,35.6,29.83,SW,223,6.0,9.0,93,0.00,,,0.00,meteohub,2013-02-11 08:36:00,
2013-02-11 03:41:00,37.4,35.6,29.83,WSW,256,2.0,9.0,93,0.00,,,0.00,meteohub,2013-02-11 08:41:00,
2013-02-11 03:46:00,37.6,36.0,29.82,SSW,213,7.0,9.0,94,0.00,,,0.00,meteohub,2013-02-11 08:46:00,
2013-02-11 03:51:00,37.4,35.8,29.82,WSW,239,4.0,9.0,94,0.00,,,0.00,meteohub,2013-02-11 08:51:00,
2013-02-11 03:56:00,37.6,36.0,29.82,WSW,240,4.0,8.0,94,0.00,,,0.00,meteohub,2013-02-11 08:56:00,
2013-02-11 04:02:00,37.6,36.0,29.82,West,275,4.0,8.0,94,0.00,,,0.00,meteohub,2013-02-11 09:02:00,
2013-02-11 04:07:00,37.6,36.0,29.82,SSW,211,4.0,8.0,94,0.00,,,0.00,meteohub,2013-02-11 09:07:00,
2013-02-11 04:12:00,37.8,36.5,29.82,SW,221,3.0,7.0,95,0.00,,,0.00,meteohub,2013-02-11 09:12:00,
2013-02-11 04:17:00,37.8,36.5,29.81,WSW,239,2.0,8.0,95,0.00,,,0.00,meteohub,2013-02-11 09:17:00,
2013-02-11 04:22:00,37.8,36.5,29.81,SSW,196,2.0,8.0,95,0.00,,,0.00,meteohub,2013-02-11 09:22:00,
2013-02-11 04:27:00,37.8,36.5,29.80,SW,214,0.0,8.0,95,0.00,,,0.00,meteohub,2013-02-11 09:27:00,
2013-02-11 04:32:00,37.8,36.5,29.80,SW,236,3.0,7.0,95,0.00,,,0.00,meteohub,2013-02-11 09:32:00,
2013-02-11 04:37:00,37.9,36.7,29.80,SW,227,7.0,7.0,95,0.00,,,0.00,meteohub,2013-02-11 09:37:00,
2013-02-11 04:42:00,37.9,36.7,29.80,WSW,247,1.0,7.0,95,0.00,,,0.00,meteohub,2013-02-11 09:42:00,
2013-02-11 04:47:00,38.1,36.9,29.80,West,272,4.0,7.0,95,0.00,,,0.00,meteohub,2013-02-11 09:47:00,
2013-02-11 04:52:00,38.1,36.9,29.80,SW,234,3.0,7.0,95,0.00,,,0.00,meteohub,2013-02-11 09:52:00,
2013-02-11 04:57:00,38.5,37.2,29.80,West,276,5.0,8.0,95,0.00,,,0.00,meteohub,2013-02-11 09:57:00,
2013-02-11 05:02:00,38.5,37.2,29.80,SW,215,2.0,8.0,95,0.00,,,0.00,meteohub,2013-02-11 10:02:00,
2013-02-11 05:07:00,38.7,37.4,29.80,SW,222,1.0,7.0,95,0.00,,,0.00,meteohub,2013-02-11 10:07:00,
2013-02-11 05:12:00,38.8,37.8,29.79,SW,236,4.0,8.0,96,0.00,,,0.00,meteohub,2013-02-11 10:12:00,
2013-02-11 05:17:00,38.8,37.8,29.79,WNW,286,1.0,8.0,96,0.00,,,0.00,meteohub,2013-02-11 10:17:00,
2013-02-11 05:22:00,39.0,37.9,29.79,West,265,2.0,8.0,96,0.00,,,0.00,meteohub,2013-02-11 10:22:00,
2013-02-11 05:27:00,39.4,38.3,29.79,West,273,4.0,8.0,96,0.00,,,0.00,meteohub,2013-02-11 10:27:00,
2013-02-11 05:32:00,39.6,38.5,29.79,West,264,2.0,8.0,96,0.00,,,0.00,meteohub,2013-02-11 10:32:00,
2013-02-11 05:37:00,39.9,38.8,29.79,SW,234,3.0,8.0,96,0.00,,,0.00,meteohub,2013-02-11 10:37:00,
2013-02-11 05:42:00,40.3,39.2,29.78,SW,223,1.0,9.0,96,0.00,,,0.00,meteohub,2013-02-11 10:42:00,
2013-02-11 05:47:00,40.5,39.4,29.78,WNW,284,3.0,9.0,96,0.00,,,0.00,meteohub,2013-02-11 10:47:00,
2013-02-11 05:52:00,40.6,39.6,29.78,NW,323,3.0,11.0,96,0.00,,,0.00,meteohub,2013-02-11 10:52:00,
2013-02-11 05:57:00,40.8,39.7,29.78,WNW,285,2.0,12.0,96,0.00,,,0.00,meteohub,2013-02-11 10:57:00,
2013-02-11 06:02:00,41.2,40.1,29.78,West,281,3.0,12.0,96,0.00,,,0.00,meteohub,2013-02-11 11:02:00,
2013-02-11 06:07:00,41.4,40.3,29.78,West,271,5.0,10.0,96,0.00,,,0.00,meteohub,2013-02-11 11:07:00,
2013-02-11 06:12:00,41.5,40.5,29.77,WSW,248,2.0,10.0,96,0.00,,,0.00,meteohub,2013-02-11 11:12:00,
2013-02-11 06:17:00,41.7,40.6,29.77,SW,225,3.0,10.0,96,0.00,,,0.00,meteohub,2013-02-11 11:17:00,
2013-02-11 06:22:00,41.7,40.6,29.77,West,278,4.0,8.0,96,0.00,,,0.00,meteohub,2013-02-11 11:22:00,
2013-02-11 06:27:00,41.9,40.8,29.77,NW,311,6.0,8.0,96,0.00,,,0.00,meteohub,2013-02-11 11:27:00,
2013-02-11 06:32:00,42.1,41.0,29.77,West,279,0.0,8.0,96,0.00,,,0.00,meteohub,2013-02-11 11:32:00,
2013-02-11 06:37:00,42.3,41.2,29.77,West,274,3.0,12.0,96,0.00,,,0.00,meteohub,2013-02-11 11:37:00,
2013-02-11 06:42:00,42.3,41.0,29.77,WSW,246,6.0,12.0,95,0.00,,,0.00,meteohub,2013-02-11 11:42:00,
2013-02-11 06:47:00,42.3,41.0,29.77,SSW,211,5.0,11.0,95,0.00,,,0.00,meteohub,2013-02-11 11:47:00,
2013-02-11 06:52:00,42.3,41.0,29.77,NW,308,4.0,9.0,95,0.00,,,0.00,meteohub,2013-02-11 11:52:00,
2013-02-11 06:57:00,42.4,41.2,29.77,West,261,6.0,9.0,95,0.00,,,0.00,meteohub,2013-02-11 11:57:00,
2013-02-11 07:02:00,42.6,41.4,29.77,West,263,5.0,9.0,95,0.00,,,0.00,meteohub,2013-02-11 12:02:00,
2013-02-11 07:07:00,42.6,41.4,29.77,WNW,284,5.0,11.0,95,0.00,,,0.00,meteohub,2013-02-11 12:07:00,
2013-02-11 07:12:00,42.6,41.4,29.76,South,171,2.0,11.0,95,0.00,,,0.00,meteohub,2013-02-11 12:12:00,
2013-02-11 07:17:00,42.8,41.5,29.76,West,275,3.0,11.0,95,0.00,,,0.00,meteohub,2013-02-11 12:17:00,
2013-02-11 07:22:00,43.0,41.7,29.75,NW,315,5.0,9.0,95,0.00,,,0.00,meteohub,2013-02-11 12:22:00,
2013-02-11 07:27:00,43.0,41.7,29.75,WSW,248,2.0,11.0,95,0.00,,,0.00,meteohub,2013-02-11 12:27:00,
2013-02-11 07:32:00,43.2,41.9,29.75,WSW,247,5.0,11.0,95,0.00,,,0.00,meteohub,2013-02-11 12:32:00,
2013-02-11 07:37:00,43.2,41.9,29.75,SSW,212,6.0,11.0,95,0.00,,,0.00,meteohub,2013-02-11 12:37:00,
2013-02-11 07:42:00,43.3,42.1,29.75,West,265,3.0,11.0,95,0.00,,,0.00,meteohub,2013-02-11 12:42:00,
2013-02-11 07:47:00,43.3,42.1,29.75,SW,225,3.0,14.0,95,0.00,,,0.00,meteohub,2013-02-11 12:47:00,
2013-02-11 07:52:00,43.3,42.1,29.75,SW,236,2.0,14.0,95,0.00,,,0.00,meteohub,2013-02-11 12:52:00,
2013-02-11 07:57:00,43.5,41.9,29.74,NW,317,4.0,9.0,94,0.00,,,0.00,meteohub,2013-02-11 12:57:00,
2013-02-11 08:02:00,43.5,41.9,29.74,SW,218,4.0,10.0,94,0.00,,,0.00,meteohub,2013-02-11 13:02:00,
2013-02-11 08:07:00,43.9,42.3,29.73,WSW,254,3.0,10.0,94,0.00,,,0.00,meteohub,2013-02-11 13:07:00,
2013-02-11 08:12:00,44.1,42.1,29.73,SW,231,3.0,9.0,93,0.00,,,0.00,meteohub,2013-02-11 13:12:00,
2013-02-11 08:17:00,44.4,42.4,29.73,WSW,244,2.0,9.0,93,0.00,,,0.00,meteohub,2013-02-11 13:17:00,
2013-02-11 08:22:00,44.8,42.6,29.73,SW,235,5.0,9.0,92,0.00,,,0.00,meteohub,2013-02-11 13:22:00,
2013-02-11 08:27:00,45.0,42.3,29.73,WSW,243,3.0,12.0,90,0.00,,,0.00,meteohub,2013-02-11 13:27:00,
2013-02-11 08:32:00,45.0,42.4,29.73,WNW,284,6.0,12.0,91,0.00,,,0.00,meteohub,2013-02-11 13:32:00,
2013-02-11 08:37:00,45.3,42.6,29.73,SW,225,5.0,12.0,90,0.00,,,0.00,meteohub,2013-02-11 13:37:00,
2013-02-11 08:42:00,45.7,42.6,29.73,NW,321,8.0,11.0,89,0.00,,,0.00,meteohub,2013-02-11 13:42:00,
2013-02-11 08:47:00,45.9,42.8,29.73,WNW,301,7.0,13.0,89,0.00,,,0.00,meteohub,2013-02-11 13:47:00,
2013-02-11 08:52:00,46.0,42.6,29.73,WNW,302,7.0,18.0,88,0.00,,,0.00,meteohub,2013-02-11 13:52:00,
2013-02-11 08:57:00,46.0,42.4,29.73,West,269,3.0,18.0,87,0.00,,,0.00,meteohub,2013-02-11 13:57:00,
2013-02-11 09:03:00,46.2,42.3,29.72,West,274,9.0,18.0,86,0.00,,,0.00,meteohub,2013-02-11 14:03:00,
2013-02-11 09:08:00,46.8,42.4,29.72,NNW,329,4.0,17.0,85,0.00,,,0.00,meteohub,2013-02-11 14:08:00,
2013-02-11 09:13:00,46.9,42.1,29.72,NW,306,14.0,15.0,83,0.00,,,0.00,meteohub,2013-02-11 14:13:00,
2013-02-11 09:18:00,47.1,42.3,29.72,NNW,327,7.0,17.0,83,0.00,,,0.00,meteohub,2013-02-11 14:18:00,
2013-02-11 09:23:00,47.1,42.3,29.71,WNW,299,8.0,17.0,83,0.00,,,0.00,meteohub,2013-02-11 14:23:00,
2013-02-11 09:28:00,47.5,42.6,29.71,NW,309,5.0,17.0,83,0.00,,,0.00,meteohub,2013-02-11 14:28:00,
2013-02-11 09:33:00,47.7,42.1,29.71,West,268,5.0,17.0,81,0.00,,,0.00,meteohub,2013-02-11 14:33:00,
2013-02-11 09:38:00,47.7,41.7,29.70,NW,315,13.0,17.0,80,0.00,,,0.00,meteohub,2013-02-11 14:38:00,
2013-02-11 09:44:00,48.0,41.5,29.70,NW,316,7.0,24.0,78,0.00,,,0.00,meteohub,2013-02-11 14:44:00,
2013-02-11 09:49:00,48.6,41.7,29.70,West,261,11.0,24.0,77,0.00,,,0.00,meteohub,2013-02-11 14:49:00,
2013-02-11 09:54:00,48.7,41.5,29.70,West,273,8.0,24.0,76,0.00,,,0.00,meteohub,2013-02-11 14:54:00,
2013-02-11 09:59:00,49.1,41.9,29.70,SW,225,9.0,20.0,76,0.00,,,0.00,meteohub,2013-02-11 14:59:00,
2013-02-11 10:04:00,49.3,41.4,29.70,WNW,291,17.0,22.0,74,0.00,,,0.00,meteohub,2013-02-11 15:04:00,
2013-02-11 10:09:00,49.3,41.0,29.70,West,270,11.0,22.0,73,0.00,,,0.00,meteohub,2013-02-11 15:09:00,
2013-02-11 10:14:00,49.5,40.5,29.69,NW,316,9.0,22.0,71,0.00,,,0.00,meteohub,2013-02-11 15:14:00,
2013-02-11 10:19:00,49.5,40.1,29.69,WNW,296,11.0,20.0,70,0.00,,,0.00,meteohub,2013-02-11 15:19:00,
2013-02-11 10:24:00,49.6,39.6,29.68,WNW,294,9.0,19.0,68,0.00,,,0.00,meteohub,2013-02-11 15:24:00,
2013-02-11 10:30:00,49.8,38.5,29.68,WNW,288,18.0,23.0,65,0.00,,,0.00,meteohub,2013-02-11 15:30:00,
2013-02-11 10:35:00,49.8,37.4,29.68,West,263,8.0,23.0,62,0.00,,,0.00,meteohub,2013-02-11 15:35:00,
2013-02-11 10:40:00,49.8,37.4,29.68,West,281,19.0,26.0,62,0.00,,,0.00,meteohub,2013-02-11 15:40:00,
2013-02-11 10:45:00,50.0,37.6,29.68,WNW,294,12.0,25.0,62,0.00,,,0.00,meteohub,2013-02-11 15:45:00,
2013-02-11 10:50:00,50.2,37.2,29.68,West,275,9.0,25.0,61,0.00,,,0.00,meteohub,2013-02-11 15:50:00,
2013-02-11 10:55:00,50.5,37.6,29.68,West,267,6.0,25.0,61,0.00,,,0.00,meteohub,2013-02-11 15:55:00,
2013-02-11 11:00:00,50.5,36.7,29.68,WNW,286,11.0,28.0,59,0.00,,,0.00,meteohub,2013-02-11 16:00:00,
2013-02-11 11:06:00,50.2,36.3,29.68,WNW,300,12.0,28.0,59,0.00,,,0.00,meteohub,2013-02-11 16:06:00,
2013-02-11 11:11:00,50.2,36.3,29.68,West,273,14.0,28.0,59,0.00,,,0.00,meteohub,2013-02-11 16:11:00,
2013-02-11 11:16:00,50.2,36.0,29.68,NNW,327,15.0,25.0,58,0.00,,,0.00,meteohub,2013-02-11 16:16:00,
2013-02-11 11:21:00,50.4,35.8,29.70,NW,311,5.0,25.0,57,0.00,,,0.00,meteohub,2013-02-11 16:21:00,
2013-02-11 11:26:00,48.2,37.0,29.70,NNW,338,4.0,25.0,65,0.00,,,0.00,meteohub,2013-02-11 16:26:00,
2013-02-11 11:31:00,45.7,36.5,29.70,NNW,344,7.0,23.0,70,0.00,,,0.00,meteohub,2013-02-11 16:31:00,
2013-02-11 11:36:00,44.8,36.7,29.70,NNW,327,7.0,16.0,73,0.00,,,0.00,meteohub,2013-02-11 16:36:00,
2013-02-11 11:41:00,44.8,36.7,29.69,NNW,329,10.0,16.0,73,0.00,,,0.00,meteohub,2013-02-11 16:41:00,
2013-02-11 11:47:00,45.9,37.0,29.70,WNW,292,4.0,17.0,71,0.00,,,0.00,meteohub,2013-02-11 16:47:00,
2013-02-11 11:52:00,47.3,36.1,29.69,WNW,298,11.0,17.0,65,0.00,,,0.00,meteohub,2013-02-11 16:52:00,
2013-02-11 11:57:00,47.8,35.8,29.70,NW,311,12.0,18.0,63,0.00,,,0.00,meteohub,2013-02-11 16:57:00,
2013-02-11 12:02:00,47.5,35.6,29.70,NW,319,19.0,21.0,63,0.00,,,0.00,meteohub,2013-02-11 17:02:00,
2013-02-11 12:07:00,46.6,35.4,29.71,NW,315,13.0,21.0,65,0.00,,,0.00,meteohub,2013-02-11 17:07:00,
2013-02-11 12:12:00,45.9,34.7,29.71,WNW,299,9.0,24.0,65,0.00,,,0.00,meteohub,2013-02-11 17:12:00,
2013-02-11 12:17:00,45.3,34.3,29.71,WNW,293,9.0,24.0,65,0.00,,,0.00,meteohub,2013-02-11 17:17:00,
2013-02-11 12:22:00,44.8,34.9,29.72,NW,311,9.0,23.0,68,0.00,,,0.00,meteohub,2013-02-11 17:22:00,
2013-02-11 12:27:00,44.1,34.5,29.72,NW,317,8.0,23.0,69,0.00,,,0.00,meteohub,2013-02-11 17:27:00,
2013-02-11 12:32:00,43.5,34.0,29.71,NW,316,8.0,18.0,69,0.00,,,0.00,meteohub,2013-02-11 17:32:00,
2013-02-11 12:37:00,43.2,33.6,29.72,NNW,334,17.0,26.0,69,0.00,,,0.00,meteohub,2013-02-11 17:37:00,
2013-02-11 12:42:00,42.6,33.1,29.72,NNW,327,16.0,29.0,69,0.00,,,0.00,meteohub,2013-02-11 17:42:00,
2013-02-11 12:47:00,42.4,32.7,29.72,NW,315,15.0,29.0,68,0.00,,,0.00,meteohub,2013-02-11 17:47:00,
2013-02-11 12:52:00,42.1,32.4,29.73,NW,315,13.0,29.0,68,0.00,,,0.00,meteohub,2013-02-11 17:52:00,
2013-02-11 12:57:00,41.7,32.0,29.72,NW,321,10.0,21.0,68,0.00,,,0.00,meteohub,2013-02-11 17:57:00,
2013-02-11 13:02:00,41.5,31.8,29.73,NW,310,15.0,21.0,68,0.00,,,0.00,meteohub,2013-02-11 18:02:00,
2013-02-11 13:07:00,41.0,31.3,29.73,NNW,336,21.0,26.0,68,0.00,,,0.00,meteohub,2013-02-11 18:07:00,
2013-02-11 13:12:00,40.8,31.1,29.73,NNW,328,11.0,26.0,68,0.00,,,0.00,meteohub,2013-02-11 18:12:00,
2013-02-11 13:17:00,40.8,31.5,29.73,NW,311,8.0,22.0,69,0.00,,,0.00,meteohub,2013-02-11 18:17:00,
2013-02-11 13:22:00,40.8,31.1,29.73,NW,315,11.0,26.0,68,0.00,,,0.00,meteohub,2013-02-11 18:22:00,
2013-02-11 13:27:00,39.9,30.2,29.74,NNW,348,13.0,26.0,68,0.00,,,0.00,meteohub,2013-02-11 18:27:00,
2013-02-11 13:32:00,38.8,29.8,29.73,NW,326,10.0,23.0,70,0.00,,,0.00,meteohub,2013-02-11 18:32:00,
2013-02-11 13:37:00,38.5,30.2,29.74,NNW,333,11.0,23.0,72,0.00,,,0.00,meteohub,2013-02-11 18:37:00,
2013-02-11 13:42:00,38.1,29.8,29.74,NNW,333,10.0,23.0,72,0.00,,,0.00,meteohub,2013-02-11 18:42:00,
2013-02-11 13:47:00,38.1,30.2,29.74,WNW,302,11.0,25.0,73,0.00,,,0.00,meteohub,2013-02-11 18:47:00,
2013-02-11 13:52:00,38.1,29.8,29.74,NNW,329,16.0,27.0,72,0.00,,,0.00,meteohub,2013-02-11 18:52:00,
2013-02-11 13:57:00,38.5,29.8,29.74,NW,319,9.0,29.0,71,0.00,,,0.00,meteohub,2013-02-11 18:57:00,
2013-02-11 14:02:00,38.7,29.7,29.73,NW,311,11.0,29.0,70,0.00,,,0.00,meteohub,2013-02-11 19:02:00,
2013-02-11 14:07:00,39.0,29.7,29.73,NW,306,14.0,31.0,69,0.00,,,0.00,meteohub,2013-02-11 19:07:00,
2013-02-11 14:12:00,39.6,29.8,29.74,NNW,346,9.0,31.0,68,0.00,,,0.00,meteohub,2013-02-11 19:12:00,
2013-02-11 14:17:00,39.7,28.6,29.73,NW,314,17.0,22.0,64,0.00,,,0.00,meteohub,2013-02-11 19:17:00,
2013-02-11 14:22:00,39.6,28.4,29.74,NW,325,12.0,27.0,64,0.00,,,0.00,meteohub,2013-02-11 19:22:00,
2013-02-11 14:27:00,39.4,28.2,29.74,NNW,336,17.0,27.0,64,0.00,,,0.00,meteohub,2013-02-11 19:27:00,
2013-02-11 14:32:00,39.4,27.9,29.74,NNW,328,15.0,27.0,63,0.00,,,0.00,meteohub,2013-02-11 19:32:00,
2013-02-11 14:37:00,39.0,27.5,29.75,NW,323,13.0,26.0,63,0.00,,,0.00,meteohub,2013-02-11 19:37:00,
2013-02-11 14:42:00,38.7,27.1,29.75,NNW,340,19.0,30.0,63,0.00,,,0.00,meteohub,2013-02-11 19:42:00,
2013-02-11 14:47:00,38.1,27.3,29.75,NW,324,23.0,30.0,65,0.00,,,0.00,meteohub,2013-02-11 19:47:00,
2013-02-11 14:52:00,37.9,27.7,29.75,NNW,327,9.0,29.0,66,0.00,,,0.00,meteohub,2013-02-11 19:52:00,
2013-02-11 14:58:00,37.8,27.9,29.75,NW,305,5.0,29.0,67,0.00,,,0.00,meteohub,2013-02-11 19:58:00,
2013-02-11 15:03:00,37.6,27.7,29.75,NW,311,11.0,27.0,67,0.00,,,0.00,meteohub,2013-02-11 20:03:00,
2013-02-11 15:08:00,37.4,27.9,29.76,NW,319,8.0,26.0,68,0.00,,,0.00,meteohub,2013-02-11 20:08:00,
2013-02-11 15:13:00,37.2,28.0,29.76,NW,323,15.0,25.0,69,0.00,,,0.00,meteohub,2013-02-11 20:13:00,
2013-02-11 15:18:00,37.2,28.0,29.76,WNW,298,12.0,24.0,69,0.00,,,0.00,meteohub,2013-02-11 20:18:00,
2013-02-11 15:23:00,37.0,28.2,29.77,NNW,327,17.0,24.0,70,0.00,,,0.00,meteohub,2013-02-11 20:23:00,
2013-02-11 15:28:00,37.0,28.2,29.77,NW,307,7.0,24.0,70,0.00,,,0.00,meteohub,2013-02-11 20:28:00,
2013-02-11 15:33:00,36.9,28.0,29.77,NNW,340,11.0,24.0,70,0.00,,,0.00,meteohub,2013-02-11 20:33:00,
2013-02-11 15:38:00,36.9,28.0,29.78,NW,311,8.0,22.0,70,0.00,,,0.00,meteohub,2013-02-11 20:38:00,
2013-02-11 15:43:00,36.7,28.2,29.78,NW,324,6.0,22.0,71,0.00,,,0.00,meteohub,2013-02-11 20:43:00,
2013-02-11 15:49:00,36.5,28.4,29.79,NNW,331,9.0,21.0,72,0.00,,,0.00,meteohub,2013-02-11 20:49:00,
2013-02-11 15:54:00,36.1,28.4,29.79,NW,310,11.0,18.0,73,0.00,,,0.00,meteohub,2013-02-11 20:54:00,
2013-02-11 15:59:00,35.8,28.4,29.79,West,274,11.0,16.0,74,0.00,,,0.00,meteohub,2013-02-11 20:59:00,
2013-02-11 16:04:00,35.6,28.2,29.80,NNW,332,15.0,20.0,74,0.00,,,0.00,meteohub,2013-02-11 21:04:00,
2013-02-11 16:09:00,35.4,28.0,29.80,NW,315,15.0,20.0,74,0.00,,,0.00,meteohub,2013-02-11 21:09:00,
2013-02-11 16:14:00,35.2,27.9,29.80,NW,312,10.0,22.0,74,0.00,,,0.00,meteohub,2013-02-11 21:14:00,
2013-02-11 16:19:00,35.1,27.7,29.81,NNW,327,11.0,22.0,74,0.00,,,0.00,meteohub,2013-02-11 21:19:00,
2013-02-11 16:24:00,35.1,27.3,29.80,West,276,13.0,22.0,73,0.00,,,0.00,meteohub,2013-02-11 21:24:00,
2013-02-11 16:29:00,35.1,27.3,29.81,NNW,333,13.0,20.0,73,0.00,,,0.00,meteohub,2013-02-11 21:29:00,
2013-02-11 16:35:00,35.1,27.3,29.82,NW,306,10.0,23.0,73,0.00,,,0.00,meteohub,2013-02-11 21:35:00,
2013-02-11 16:40:00,35.1,27.0,29.81,NW,313,7.0,23.0,72,0.00,,,0.00,meteohub,2013-02-11 21:40:00,
2013-02-11 16:45:00,35.1,27.0,29.81,NW,307,10.0,23.0,72,0.00,,,0.00,meteohub,2013-02-11 21:45:00,
2013-02-11 16:50:00,35.1,27.0,29.81,WNW,296,10.0,21.0,72,0.00,,,0.00,meteohub,2013-02-11 21:50:00,
2013-02-11 16:55:00,35.1,26.6,29.82,NNW,327,11.0,21.0,71,0.00,,,0.00,meteohub,2013-02-11 21:55:00,
2013-02-11 17:00:00,35.1,26.6,29.81,NW,316,11.0,21.0,71,0.00,,,0.00,meteohub,2013-02-11 22:00:00,
2013-02-11 17:05:00,34.9,26.4,29.82,NNW,336,9.0,21.0,71,0.00,,,0.00,meteohub,2013-02-11 22:05:00,
2013-02-11 17:10:00,34.9,26.1,29.82,NW,306,16.0,22.0,70,0.00,,,0.00,meteohub,2013-02-11 22:10:00,
2013-02-11 17:15:00,34.7,25.5,29.83,NW,326,14.0,25.0,69,0.00,,,0.00,meteohub,2013-02-11 22:15:00,
2013-02-11 17:21:00,34.5,25.3,29.83,NW,305,8.0,25.0,69,0.00,,,0.00,meteohub,2013-02-11 22:21:00,
2013-02-11 17:26:00,34.5,25.3,29.83,NW,305,9.0,25.0,69,0.00,,,0.00,meteohub,2013-02-11 22:26:00,
2013-02-11 17:31:00,34.3,25.5,29.83,NNW,329,9.0,20.0,70,0.00,,,0.00,meteohub,2013-02-11 22:31:00,
2013-02-11 17:36:00,34.3,25.2,29.83,NW,324,8.0,17.0,69,0.00,,,0.00,meteohub,2013-02-11 22:36:00,
2013-02-11 17:41:00,34.2,25.0,29.83,NW,317,17.0,17.0,69,0.00,,,0.00,meteohub,2013-02-11 22:41:00,
2013-02-11 17:46:00,34.2,25.3,29.83,NW,308,14.0,23.0,70,0.00,,,0.00,meteohub,2013-02-11 22:46:00,
2013-02-11 17:51:00,34.2,25.3,29.84,NNW,331,11.0,23.0,70,0.00,,,0.00,meteohub,2013-02-11 22:51:00,
2013-02-11 17:56:00,34.2,25.0,29.83,NW,325,13.0,23.0,69,0.00,,,0.00,meteohub,2013-02-11 22:56:00,
2013-02-11 18:01:00,34.2,25.0,29.83,NW,317,7.0,23.0,69,0.00,,,0.00,meteohub,2013-02-11 23:01:00,
2013-02-11 18:07:00,34.2,25.0,29.83,NNW,333,8.0,23.0,69,0.00,,,0.00,meteohub,2013-02-11 23:07:00,
2013-02-11 18:12:00,34.2,25.0,29.84,NW,315,7.0,23.0,69,0.00,,,0.00,meteohub,2013-02-11 23:12:00,
2013-02-11 18:17:00,34.2,25.3,29.84,NW,321,14.0,23.0,70,0.00,,,0.00,meteohub,2013-02-11 23:17:00,
2013-02-11 18:22:00,34.2,25.0,29.85,NNW,332,7.0,23.0,69,0.00,,,0.00,meteohub,2013-02-11 23:22:00,
2013-02-11 18:27:00,34.2,25.0,29.85,NW,309,12.0,22.0,69,0.00,,,0.00,meteohub,2013-02-11 23:27:00,
2013-02-11 18:32:00,34.2,25.3,29.85,NW,321,10.0,22.0,70,0.00,,,0.00,meteohub,2013-02-11 23:32:00,
2013-02-11 18:37:00,34.0,25.2,29.85,NW,317,9.0,20.0,70,0.00,,,0.00,meteohub,2013-02-11 23:37:00,
2013-02-11 18:42:00,34.0,25.2,29.85,WNW,285,9.0,20.0,70,0.00,,,0.00,meteohub,2013-02-11 23:42:00,
2013-02-11 18:47:00,34.0,24.8,29.85,WNW,285,9.0,19.0,69,0.00,,,0.00,meteohub,2013-02-11 23:47:00,
2013-02-11 18:52:00,34.0,24.8,29.85,NW,323,11.0,20.0,69,0.00,,,0.00,meteohub,2013-02-11 23:52:00,
2013-02-11 18:57:00,34.0,24.8,29.86,North,355,14.0,24.0,69,0.00,,,0.00,meteohub,2013-02-11 23:57:00,
2013-02-11 19:02:00,34.0,24.8,29.86,NNW,334,10.0,24.0,69,0.00,,,0.00,meteohub,2013-02-12 00:02:00,
2013-02-11 19:07:00,33.8,24.8,29.86,NW,311,7.0,24.0,69,0.00,,,0.00,meteohub,2013-02-12 00:07:00,
2013-02-11 19:12:00,33.8,25.0,29.86,NW,319,4.0,20.0,70,0.00,,,0.00,meteohub,2013-02-12 00:12:00,
2013-02-11 19:17:00,33.6,24.6,29.86,West,275,12.0,22.0,69,0.00,,,0.00,meteohub,2013-02-12 00:17:00,
2013-02-11 19:22:00,33.6,24.6,29.86,NW,321,9.0,22.0,69,0.00,,,0.00,meteohub,2013-02-12 00:22:00,
2013-02-11 19:28:00,33.6,24.6,29.87,NW,308,10.0,22.0,69,0.00,,,0.00,meteohub,2013-02-12 00:28:00,
2013-02-11 19:33:00,33.6,24.6,29.87,NW,319,5.0,25.0,69,0.00,,,0.00,meteohub,2013-02-12 00:33:00,
2013-02-11 19:38:00,33.6,24.6,29.87,West,281,14.0,25.0,69,0.00,,,0.00,meteohub,2013-02-12 00:38:00,
2013-02-11 19:43:00,33.6,24.8,29.87,West,281,8.0,25.0,70,0.00,,,0.00,meteohub,2013-02-12 00:43:00,
2013-02-11 19:49:00,33.6,24.8,29.87,NW,326,7.0,22.0,70,0.00,,,0.00,meteohub,2013-02-12 00:49:00,
2013-02-11 19:54:00,33.6,24.8,29.86,NW,321,12.0,22.0,70,0.00,,,0.00,meteohub,2013-02-12 00:54:00,
2013-02-11 19:59:00,33.6,24.8,29.86,NNW,331,9.0,17.0,70,0.00,,,0.00,meteohub,2013-02-12 00:59:00,
2013-02-11 20:04:00,33.4,24.8,29.87,WSW,244,7.0,17.0,70,0.00,,,0.00,meteohub,2013-02-12 01:04:00,
2013-02-11 20:09:00,33.4,24.8,29.87,NW,323,12.0,18.0,70,0.00,,,0.00,meteohub,2013-02-12 01:09:00,
2013-02-11 20:14:00,33.4,25.0,29.88,West,280,9.0,18.0,71,0.00,,,0.00,meteohub,2013-02-12 01:14:00,
2013-02-11 20:19:00,33.4,25.0,29.87,NW,317,12.0,24.0,71,0.00,,,0.00,meteohub,2013-02-12 01:19:00,
2013-02-11 20:25:00,33.4,25.0,29.87,NW,321,15.0,24.0,71,0.00,,,0.00,meteohub,2013-02-12 01:25:00,
2013-02-11 20:30:00,33.4,25.3,29.88,NW,315,9.0,24.0,72,0.00,,,0.00,meteohub,2013-02-12 01:30:00,
2013-02-11 20:35:00,33.4,25.3,29.87,NNW,332,8.0,22.0,72,0.00,,,0.00,meteohub,2013-02-12 01:35:00,
2013-02-11 20:40:00,33.3,25.2,29.88,NW,325,9.0,17.0,72,0.00,,,0.00,meteohub,2013-02-12 01:40:00,
2013-02-11 20:45:00,33.3,25.2,29.88,NW,317,9.0,17.0,72,0.00,,,0.00,meteohub,2013-02-12 01:45:00,
2013-02-11 20:51:00,33.3,25.2,29.89,NW,324,8.0,17.0,72,0.00,,,0.00,meteohub,2013-02-12 01:51:00,
2013-02-11 20:56:00,33.3,25.2,29.88,WNW,286,13.0,18.0,72,0.00,,,0.00,meteohub,2013-02-12 01:56:00,
2013-02-11 21:01:00,33.3,25.2,29.88,NW,318,8.0,18.0,72,0.00,,,0.00,meteohub,2013-02-12 02:01:00,
2013-02-11 21:06:00,33.3,25.5,29.88,NW,320,13.0,18.0,73,0.00,,,0.00,meteohub,2013-02-12 02:06:00,
2013-02-11 21:11:00,33.3,25.5,29.88,NNW,328,11.0,18.0,73,0.00,,,0.00,meteohub,2013-02-12 02:11:00,
2013-02-11 21:16:00,33.1,25.3,29.89,WNW,301,9.0,19.0,73,0.00,,,0.00,meteohub,2013-02-12 02:16:00,
2013-02-11 21:22:00,33.1,25.3,29.88,NW,317,10.0,19.0,73,0.00,,,0.00,meteohub,2013-02-12 02:22:00,
2013-02-11 21:27:00,33.1,25.7,29.88,NW,325,6.0,19.0,74,0.00,,,0.00,meteohub,2013-02-12 02:27:00,
2013-02-11 21:32:00,33.1,25.7,29.88,NW,315,11.0,16.0,74,0.00,,,0.00,meteohub,2013-02-12 02:32:00,
2013-02-11 21:37:00,32.9,25.5,29.88,NW,325,12.0,16.0,74,0.00,,,0.00,meteohub,2013-02-12 02:37:00,
2013-02-11 21:42:00,32.9,25.5,29.88,North,0,11.0,16.0,74,0.00,,,0.00,meteohub,2013-02-12 02:42:00,
2013-02-11 21:47:00,32.7,25.3,29.89,NW,309,8.0,17.0,74,0.00,,,0.00,meteohub,2013-02-12 02:47:00,
2013-02-11 21:52:00,32.9,25.2,29.88,NW,324,10.0,20.0,73,0.00,,,0.00,meteohub,2013-02-12 02:52:00,
2013-02-11 21:57:00,32.9,25.5,29.89,NNW,336,11.0,20.0,74,0.00,,,0.00,meteohub,2013-02-12 02:57:00,
2013-02-11 22:02:00,32.7,25.3,29.89,NNW,331,6.0,20.0,74,0.00,,,0.00,meteohub,2013-02-12 03:02:00,
2013-02-11 22:07:00,32.7,25.3,29.89,NW,304,9.0,20.0,74,0.00,,,0.00,meteohub,2013-02-12 03:07:00,
2013-02-11 22:12:00,32.5,24.8,29.90,NNW,336,8.0,19.0,73,0.00,,,0.00,meteohub,2013-02-12 03:12:00,
2013-02-11 22:17:00,32.4,24.6,29.89,NNW,331,12.0,22.0,73,0.00,,,0.00,meteohub,2013-02-12 03:17:00,
2013-02-11 22:22:00,32.2,25.5,29.90,NW,314,13.0,25.0,76,0.00,,,0.00,meteohub,2013-02-12 03:22:00,
2013-02-11 22:27:00,31.6,25.0,29.90,NNW,342,15.0,25.0,76,0.00,,,0.00,meteohub,2013-02-12 03:27:00,
2013-02-11 22:32:00,31.6,24.6,29.90,NNW,339,8.0,25.0,75,0.00,,,0.00,meteohub,2013-02-12 03:32:00,
2013-02-11 22:37:00,31.6,25.0,29.91,NW,323,13.0,22.0,76,0.00,,,0.00,meteohub,2013-02-12 03:37:00,
2013-02-11 22:42:00,31.6,24.6,29.91,NW,321,10.0,19.0,75,0.00,,,0.00,meteohub,2013-02-12 03:42:00,
2013-02-11 22:47:00,31.6,24.6,29.91,NW,319,6.0,22.0,75,0.00,,,0.00,meteohub,2013-02-12 03:47:00,
2013-02-11 22:52:00,31.6,24.3,29.90,NNW,328,8.0,22.0,74,0.00,,,0.00,meteohub,2013-02-12 03:52:00,
2013-02-11 22:57:00,31.6,24.6,29.90,NW,315,10.0,22.0,75,0.00,,,0.00,meteohub,2013-02-12 03:57:00,
2013-02-11 23:02:00,31.6,24.3,29.90,NW,320,10.0,19.0,74,0.00,,,0.00,meteohub,2013-02-12 04:02:00,
2013-02-11 23:07:00,31.6,24.6,29.90,NW,321,8.0,21.0,75,0.00,,,0.00,meteohub,2013-02-12 04:07:00,
2013-02-11 23:12:00,31.6,24.6,29.90,NNW,330,17.0,21.0,75,0.00,,,0.00,meteohub,2013-02-12 04:12:00,
2013-02-11 23:17:00,31.6,24.6,29.90,NW,315,13.0,21.0,75,0.00,,,0.00,meteohub,2013-02-12 04:17:00,
2013-02-11 23:22:00,31.5,24.4,29.90,NW,317,7.0,24.0,75,0.00,,,0.00,meteohub,2013-02-12 04:22:00,
2013-02-11 23:27:00,31.5,24.4,29.90,WNW,293,10.0,24.0,75,0.00,,,0.00,meteohub,2013-02-12 04:27:00,
2013-02-11 23:32:00,31.5,24.4,29.91,NW,307,13.0,24.0,75,0.00,,,0.00,meteohub,2013-02-12 04:32:00,
2013-02-11 23:38:00,31.5,24.4,29.91,NW,323,7.0,20.0,75,0.00,,,0.00,meteohub,2013-02-12 04:38:00,
2013-02-11 23:43:00,31.5,24.4,29.91,WNW,287,8.0,20.0,75,0.00,,,0.00,meteohub,2013-02-12 04:43:00,
2013-02-11 23:48:00,31.5,24.8,29.91,NW,318,4.0,20.0,76,0.00,,,0.00,meteohub,2013-02-12 04:48:00,
2013-02-11 23:53:00,31.5,24.8,29.91,NW,326,9.0,20.0,76,0.00,,,0.00,meteohub,2013-02-12 04:53:00,
2013-02-11 23:58:00,31.5,25.2,29.92,NW,315,9.0,19.0,77,0.00,,,0.00,meteohub,2013-02-12 04:58:00,